Location: Atlantic Beach
(40.5890°N, 73.7290°W)
Time: 06:22:05
(UTC+00:00)

N. Korean satellite - Pass Details

Date: 27 January 2021
Orbit: 451 x 502 km, 97.2° (Epoch: 06 March)

Event Time Altitude Azimuth Distance (km) Brightness Sun altitude
Rises 10:07:36 0° 16° (NNE) 2,496 10.3 -23.1°
Reaches altitude 10° 10:09:41 10° 21° (NNE) 1,609 9.4 -22.7°
Maximum altitude 10:13:04 54° 100° (E) 557 7.1 -22.0°
Drops below altitude 10° 10:16:24 10° 179° (S) 1,580 9.2 -21.4°
Sets 10:18:26 0° 184° (S) 2,445 10.2 -21.0°
